Location: Newark
(34.1333°N, 7.9667°W)
Time: 01:18:08
(UTC+00:00)

Envisat - Pass Details

Date: 28 September 2021
Orbit: 764 x 766 km, 98.2° (Epoch: 17 October)

Event Time Altitude Azimuth Distance (km) Brightness Sun altitude
Rises 05:28:06 0° 14° (NNE) 3,234 6.5 -12.4°
Reaches altitude 10° 05:30:26 10° 17° (NNE) 2,304 5.8 -12.0°
Maximum altitude 05:35:30 72° 101° (ESE) 805 3.3 -10.9°
Drops below altitude 10° 05:40:32 10° 186° (S) 2,290 5.4 -9.9°
Sets 05:42:50 0° 188° (S) 3,212 6.1 -9.4°
